Location: U-46 Planetarium
(42.0300°N, 88.2740°W)
Time: 12:40:44
(UTC-05:00)

Daily predictions for brighter satellites

Satellite Brightness Start Highest point End
(mag) Time Altitude Azimuth Time Altitude Azimuth Time Altitude Azimuth
USA 229 DEB 4.0 20:56:39 10° S 21:03:12 48° ESE 21:09:50 10° NE
USA 229 4.0 20:56:46 10° S 21:03:18 47° ESE 21:09:55 10° NE
Cosmos 1408 Rocket 4.5 21:00:47 10° SSW 21:05:06 53° W 21:09:24 10° N
Cosmos 332 Rocket 4.4 21:03:32 10° NNW 21:08:18 58° WSW 21:13:03 10° S
Cosmos 2151 4.1 21:11:05 10° SE 21:14:31 25° E 21:17:59 10° NE
Cosmos 1674 3.5 21:11:13 10° SSE 21:14:39 33° E 21:18:08 10° NNE
Terra 4.0 21:15:10 10° ENE 21:16:23 11° ENE 21:17:34 10° NE
Cosmos 1437 Rocket 3.0 21:12:49 10° N 21:16:32 50° ENE 21:20:15 10° SSE
CZ-4 SHROUD 3.9 21:14:16 10° SE 21:17:12 38° ENE 21:20:10 10° N
Cosmos 968 Rocket 3.6 21:14:21 10° SSW 21:19:31 87° WNW 21:24:47 10° NNE
Cosmos 1151 Rocket 3.5 21:17:13 10° N 21:21:20 43° ENE 21:25:27 10° SSE
Meteor 1-21 Rocket 4.2 21:22:58 10° S 21:28:31 88° ESE 21:34:05 10° N
COSMOS 2428 4.0 21:26:58 10° N 21:31:50 28° NE 21:36:34 10° ESE
Envisat 3.1 21:31:38 10° S 21:36:42 78° WSW 21:41:48 10° NNW
H-2A R/B 2.8 21:32:32 10° S 21:36:58 55° WSW 21:41:26 10° NNW
Cosmos 1328 4.4 21:34:24 11° SSE 21:37:51 36° E 21:41:30 10° NNE
ATLAS 5 CENTAUR R/B 4.4 21:34:47 10° W 21:38:58 26° NW 21:43:25 10° NNE
Meteor 2-20 4.5 21:33:36 10° S 21:39:45 85° E 21:45:55 10° N
DELTA 2 R/B (1) 3.6 21:35:17 10° W 21:40:47 64° S 21:45:58 12° ESE
Cosmos 2112 Rocket 4.4 21:38:38 10° N 21:43:43 49° ENE 21:47:47 16° SE
Cosmos 2058 3.7 21:42:56 15° SSE 21:45:47 33° E 21:49:29 10° NNE
ERS-1 Rocket 4.3 21:41:47 10° SSW 21:46:24 36° W 21:51:04 10° NNW
YAOGAN 6 2.6 21:46:03 15° SSE 21:48:56 67° ENE 21:52:33 10° N
SPOT 5 3.0 21:46:02 10° S 21:50:31 70° WSW 21:55:16 10° NNW
Cosmos 2219 Rocket 3.8 21:48:11 10° N 21:52:26 22° NE 21:56:40 10° E
Cosmos 405 3.1 21:49:08 10° NNW 21:52:47 79° W 21:55:47 14° S
Cosmos 1777 Rocket 4.3 21:48:14 10° SSW 21:53:29 73° WNW 21:58:46 10° NNE
Cosmos 1437 2.7 21:52:16 13° S 21:55:05 67° E 21:58:22 10° NNE
MetOp-A 4.3 21:54:51 11° S 21:59:57 76° WSW 22:05:20 10° NNW
ARGOS 3.3 21:55:49 16° SSE 22:00:03 65° ENE 22:05:24 10° N
H-2A R/B 3.0 22:00:41 18° SE 22:04:07 37° ENE 22:09:03 10° N
BREEZE-M DEB (TANK) 4.1 22:02:41 10° NW 22:04:14 18° NNE 22:06:03 10° ENE
SL-14 R/B 3.9 22:05:19 23° SE 22:07:10 37° E 22:10:51 10° NNE
Meteor 1-27 4.4 22:03:10 10° N 22:08:48 59° ENE 22:12:32 21° SSE
Cosmos 2219 3.3 22:03:23 10° S 22:09:01 60° ESE 22:14:41 10° NNE
NOSS 3-1 (C) 3.7 22:05:41 10° S 22:11:12 46° ESE 22:17:14 10° NE
SL-08 RB Rocket 3.7 22:08:39 22° SSE 22:11:29 67° ENE 22:15:57 10° N
ATLAS CENTAUR R/B 4.1 22:11:36 10° W 22:12:57 11° WSW 22:14:16 10° SW
Cosmos 1271 Rocket 4.0 22:10:13 10° NNE 22:13:31 27° ENE 22:14:51 22° ESE
Cosmos 2242 Rocket 4.4 22:10:22 10° N 22:14:31 37° ENE 22:16:33 24° SE
SPOT 1/Viking Rocket 3.6 22:12:06 17° S 22:16:04 77° WSW 22:21:15 10° NNW
Cosmos 2322 3.9 22:11:11 10° NNW 22:16:53 70° WSW 22:20:54 20° S
Delta 2 Rocket 4.2 22:15:45 10° SW 22:17:57 23° S 22:17:57 23° S
DELTA 2 DEB (DPAF) 4.3 22:16:07 25° SSE 22:18:38 62° ENE 22:23:05 10° N
Cosmos 2237 Rocket 3.8 22:14:56 10° N 22:19:30 24° NE 22:23:15 13° E
Cosmos 1726 2.4 22:17:16 10° N 22:20:59 55° E 22:22:28 32° SE
Cosmos 1680 Rocket 3.7 22:16:06 10° NNW 22:21:18 67° WSW 22:24:51 21° S
Cosmos 2322 Rocket 4.2 22:18:20 10° NW 22:22:27 21° W 22:26:34 10° SSW
USA 245 3.5 22:26:25 25° SSW 22:27:27 35° WSW 22:29:46 10° NNW
Iridium 2 4.4 22:28:43 32° ESE 22:29:37 37° E 22:33:11 10° NNE
Cosmos 304 Rocket 4.4 22:25:12 10° NNW 22:29:52 50° WSW 22:32:54 20° S
SL-16 R/B 4.3 22:27:49 10° NW 22:31:44 19° W 22:35:38 10° SW
CZ-4B R/B 4.2 22:28:00 10° N 22:33:11 57° WNW 22:38:17 10° SSW
Cosmos 2360 Rocket 2.8 22:28:19 10° NW 22:33:44 49° WSW 22:37:27 20° S
Cosmos 2150 Rocket 4.2 22:31:21 22° S 22:34:48 59° ESE 22:40:12 10° NNE
NOAA 11 4.4 22:31:17 21° S 22:35:00 67° WSW 22:40:27 10° NNW
Cosmos 1898 Rocket 3.5 22:33:17 24° S 22:36:17 58° ESE 22:41:24 10° NNE
Cosmos 2315 Rocket 4.4 22:31:19 10° NNW 22:37:24 60° W 22:42:17 16° SSW
Landsat 7 3.8 22:35:02 29° SSE 22:37:30 89° ENE 22:42:17 10° NNW
Meteor 1-11 4.3 22:33:41 15° S 22:38:32 86° WNW 22:44:18 10° N
CARTOSAT-1 3.6 22:37:19 34° SE 22:39:03 67° ENE 22:43:22 10° N
DMSP B5D2-2 4.2 22:34:53 10° NNE 22:40:02 55° E 22:42:27 30° SSE
Cosmos 1633 Rocket 3.0 22:42:17 29° S 22:44:32 90° W 22:48:56 10° N
Cosmos 858 Rocket 4.5 22:42:00 26° S 22:44:51 64° ESE 22:50:00 10° NNE
Sich 1 3.0 22:42:32 27° S 22:44:58 84° W 22:49:24 10° N
Spot 4 4.0 22:44:35 33° SE 22:46:35 60° ENE 22:51:22 10° N
Cosmos 292 Rocket 3.8 22:47:57 10° NNW 22:52:43 68° ENE 22:54:23 39° SE
Terra 1.7 22:51:23 36° SSE 22:53:21 89° E 22:58:08 10° NNW
Meteor 2-10 4.2 22:51:35 10° N 22:57:18 79° E 22:59:52 35° SSE
Meteor 1-4 Rocket 2.6 22:53:57 10° NNW 22:57:44 77° W 22:58:33 52° S
Cosmos 1300 4.0 22:55:01 10° NNW 22:58:33 35° W 23:00:11 24° SW
Cosmos 2227 Rocket 2.7 22:57:46 34° SE 22:59:08 40° ESE 23:04:24 10° NE
Cosmos 1626 2.6 22:59:43 43° E 22:59:47 43° E 23:03:23 10° NNE
SeaSat 1 3.5 22:58:28 23° ESE 23:00:43 35° NE 23:05:11 10° N
Cosmos 1346 4.1 23:04:05 37° NE 23:04:05 37° NE 23:06:19 10° NNE
USA 32 4.2 22:58:43 10° N 23:03:57 69° W 23:06:29 31° SSW
Cosmos 2333 Rocket 2.5 22:59:07 10° NNW 23:04:47 57° ENE 23:07:11 33° SE
CZ-4C R/B 4.4 23:07:41 26° SW 23:08:36 30° W 23:11:43 10° NW
Spot 2 4.4 23:04:08 10° NNE 23:09:19 90° ESE 23:11:31 35° SSW
Nadezhda 1 Rocket 3.9 23:03:39 10° N 23:09:46 85° E 23:12:27 36° S
SL-16 R/B 3.7 23:05:55 10° N 23:10:42 27° NE 23:13:41 18° E
Lacrosse 4 Rocket 3.8 23:09:22 10° N 23:12:21 17° NE 23:14:35 13° E
Cosmos 1869 3.5 23:08:58 10° N 23:12:58 56° E 23:13:24 52° ESE
NOSS 3-1 (A) 3.4 23:07:28 10° SW 23:13:22 87° NW 23:19:59 10° NE
COSMOS 2428 3.4 23:10:53 10° NW 23:16:16 46° WSW 23:18:35 30° SSW
Cosmos 1745 Rocket 4.2 23:17:11 26° SSW 23:20:54 70° W 23:27:06 10° N
Cosmos 1455 2.0 23:17:53 10° N 23:21:42 90° WNW 23:21:56 78° S
Cosmos 2297 Rocket 2.5 23:25:44 43° SE 23:26:43 47° ESE 23:32:07 10° NE
DELTA 2 R/B (1) 4.3 23:21:52 10° W 23:26:42 33° SSW 23:26:42 33° SSW
Cosmos 1709 Rocket 4.0 23:27:29 42° SSE 23:29:28 62° E 23:35:29 10° NNE
H-2A R/B 4.2 23:27:54 10° NE 23:30:32 21° E 23:30:32 21° E
Cosmos 2221 Rocket 4.2 23:28:27 10° N 23:32:49 43° ENE 23:33:22 41° E
Cosmos 192 4.4 23:28:14 10° NNW 23:33:09 68° ENE 23:34:11 52° SE
Cosmos 1470 Rocket 4.1 23:31:55 38° SW 23:33:12 53° W 23:37:26 10° N
Cosmos 1933 Rocket 4.1 23:33:20 38° SW 23:34:43 55° W 23:39:07 10° N
COS B Rocket 3.8 23:31:58 10° NNE 23:35:12 45° ENE 23:35:12 45° ENE
ATLAS 2AS CENTAUR R/B 3.0 23:32:40 35° S 23:35:59 60° ESE 23:43:52 10° NE
Cosmos 1703 Rocket 3.9 23:32:25 10° N 23:36:40 49° E 23:37:00 48° E
Cosmos 2219 Rocket 2.3 23:31:19 10° NNW 23:36:50 62° WSW 23:38:24 44° SSW
GEOS 3 Rocket 4.0 23:35:40 36° ESE 23:37:41 59° NE 23:42:47 10° NNW
COSMOS 2455 3.5 23:33:39 10° NNW 23:39:28 46° NE 23:42:07 29° ESE
Cosmos 1937 Rocket 4.1 23:36:51 23° SW 23:39:55 53° WNW 23:45:02 10° N
Okean 1-7 4.0 23:38:07 10° N 23:42:03 34° ENE 23:42:15 34° E
H-2A R/B 3.5 23:41:19 22° SW 23:43:32 30° W 23:48:15 10° NW
Cosmos 2181 Rocket 4.0 23:42:22 10° N 23:48:46 78° E 23:50:50 46° SSE
Cosmos 1980 3.7 23:44:54 10° NNW 23:50:31 67° WSW 23:51:50 50° S
Cosmos 389 Rocket 3.8 23:52:46 10° N 23:55:35 34° NE 23:55:35 34° NE
